Location: Oshawa
(43.9000°N, 78.8670°W)
Time: 16:37:43
(UTC-04:00)

ITAMSAT 1 - Visible Passes

Search period start: 22 May 2015 00:00
Search period end: 01 June 2015 00:00
Orbit: 784 x 798 km, 98.7° (Epoch: 22 May)

Date Brightness Start Highest point End Pass type
(mag) Time Alt. Az. Time Alt. Az. Time Alt. Az.
22 May 8.0 03:37:08 10° NNE 03:42:19 62° E 03:46:00 19° S visible
23 May 9.0 03:08:14 10° NNE 03:12:56 34° E 03:16:27 16° SSE visible
23 May 8.6 04:47:45 10° N 04:52:25 33° WNW 04:57:00 10° SW visible
24 May 9.8 02:39:49 10° NE 02:43:23 19° E 02:46:54 11° SE visible
24 May 7.9 04:18:11 10° N 04:23:20 58° WNW 04:27:38 15° SSW visible
25 May 7.7 03:48:53 10° NNE 03:54:08 79° ESE 03:58:05 18° S visible
26 May 8.6 03:19:51 10° NNE 03:24:48 43° E 03:28:32 17° SSE visible
26 May 8.9 04:59:46 10° N 05:04:08 27° WNW 05:08:23 10° WSW visible
27 May 9.5 02:51:12 10° NE 02:55:19 24° E 02:58:59 12° SE visible
27 May 8.2 04:30:05 10° N 04:35:05 46° WNW 04:39:43 12° SW visible
28 May 10.1 02:23:30 10° ENE 02:25:39 13° E 02:28:07 10° ESE visible
28 May 7.7 04:00:40 10° NNE 04:05:55 83° WNW 04:10:09 16° SSW visible
29 May 8.2 03:31:31 10° NNE 03:36:39 55° E 03:40:36 17° S visible
30 May 9.1 03:02:41 10° NE 03:07:14 30° E 03:11:02 14° SSE visible
30 May 8.5 04:42:00 10° N 04:46:48 37° WNW 04:51:33 10° SW visible
31 May 9.9 02:34:27 10° NE 02:37:39 17° E 02:41:02 10° SE visible
31 May 7.8 04:12:30 10° N 04:17:42 66° WNW 04:22:12 14° SSW visible
